sat.trackr.live / text

‹ back to catalog

STARLINK-30245

NORAD 57612 · 2023-119L

PAYLOAD ACTIVE UNKNOWN

§ Identity

Operator
Country
US
Launch date
2023-08-11
Launch site
AFETR
Launch vehicle
Mass (kg)
RCS (m²)

Purposes: comms

External: N2YO · Heavens-Above · Gunter

§ Orbital elements

Epoch: 2026-09-20T04:03:11.350368Z

Period
94.27 min
Inclination
43.0056°
Eccentricity
0.0001483
Mean motion
15.27579757 rev/d
Perigee alt
482.0 km
Apogee alt
484.1 km
Semi-major
6,861.2 km
B*
3.0537e-5
RAAN
62.9017°
Arg perigee
265.6523°
Mean anomaly
94.4160°
Rev number
17,283

§ Raw data

STARLINK-302451 57612U 23119L   26263.16888137  .00000578  00000+0  30537-4 0  99992 57612  43.0056  62.9017 0001483 265.6523  94.4160 15.27579757172831

JSON: /api/v1/satellites/57612 · /tle

For live sub-satellite position, see the globe view (requires WebGL).

§ Visibility from observer

Set your observer location to see the next 7 days of passes ≥ 10°. The values pass through the URL so the page stays shareable.

No JS? Fill the form by hand. The geolocation button needs JavaScript.